Time,TemperatureF,DewpointF,PressureIn,WindDirection,WindDirectionDegrees,WindSpeedMPH,WindSpeedGustMPH,Humidity,HourlyPrecipIn,Conditions,Clouds,dailyrainin,SolarRadiationWatts/m^2,SoftwareType,DateUTC
2013-01-24 00:03:00,28.0,9.0,-100.00,SSW,192,3.0,8.0,44,0.00,,,0.00,0.000000,,2013-01-24 07:03:00,
2013-01-24 00:12:00,28.0,9.0,-100.00,SSW,192,3.0,8.0,44,0.00,,,0.00,0.000000,,2013-01-24 07:12:00,
2013-01-24 00:23:00,28.0,9.0,-100.00,SSW,192,3.0,8.0,44,0.00,,,0.00,0.000000,,2013-01-24 07:23:00,
2013-01-24 00:33:00,28.0,9.0,-100.00,SSW,192,3.0,8.0,44,0.00,,,0.00,0.000000,,2013-01-24 07:33:00,
2013-01-24 01:02:00,30.0,9.0,-100.00,SSW,192,2.0,5.0,41,0.00,,,0.00,0.000000,,2013-01-24 08:02:00,
2013-01-24 01:12:00,30.0,9.0,-100.00,SSW,192,2.0,5.0,41,0.00,,,0.00,0.000000,,2013-01-24 08:12:00,
2013-01-24 01:22:00,30.0,9.0,-100.00,SSW,192,2.0,5.0,41,0.00,,,0.00,0.000000,,2013-01-24 08:22:00,
2013-01-24 01:33:00,30.0,9.0,-100.00,SSW,192,2.0,5.0,41,0.00,,,0.00,0.000000,,2013-01-24 08:33:00,
2013-01-24 01:53:00,29.0,7.0,-100.00,SSW,209,3.0,5.0,38,0.00,,,0.00,0.000000,,2013-01-24 08:53:00,
2013-01-24 02:03:00,29.0,7.0,-100.00,SSW,209,3.0,5.0,38,0.00,,,0.00,0.000000,,2013-01-24 09:03:00,
2013-01-24 02:13:00,29.0,7.0,-100.00,SSW,209,3.0,5.0,38,0.00,,,0.00,0.000000,,2013-01-24 09:13:00,
2013-01-24 02:23:00,29.0,7.0,-100.00,SSW,209,3.0,5.0,38,0.00,,,0.00,0.000000,,2013-01-24 09:23:00,
2013-01-24 02:33:00,29.0,7.0,-100.00,SSW,209,3.0,5.0,38,0.00,,,0.00,0.000000,,2013-01-24 09:33:00,
2013-01-24 03:03:00,27.0,6.0,-100.00,South,186,3.0,6.0,41,0.00,,,0.00,0.000000,,2013-01-24 10:03:00,
2013-01-24 03:12:00,27.0,6.0,-100.00,South,186,3.0,6.0,41,0.00,,,0.00,0.000000,,2013-01-24 10:12:00,
2013-01-24 03:23:00,27.0,6.0,-100.00,South,186,3.0,6.0,41,0.00,,,0.00,0.000000,,2013-01-24 10:23:00,
2013-01-24 03:33:00,27.0,6.0,-100.00,South,186,3.0,6.0,41,0.00,,,0.00,0.000000,,2013-01-24 10:33:00,
2013-01-24 04:03:00,26.0,6.0,-100.00,NNE,28,3.0,4.0,41,0.00,,,0.00,0.000000,,2013-01-24 11:03:00,
2013-01-24 04:12:00,26.0,6.0,-100.00,NNE,28,3.0,4.0,41,0.00,,,0.00,0.000000,,2013-01-24 11:12:00,
2013-01-24 04:23:00,26.0,6.0,-100.00,NNE,28,3.0,4.0,41,0.00,,,0.00,0.000000,,2013-01-24 11:23:00,
2013-01-24 04:33:00,26.0,6.0,-100.00,NNE,28,3.0,4.0,41,0.00,,,0.00,0.000000,,2013-01-24 11:33:00,
2013-01-24 05:03:00,23.0,6.0,-100.00,NNE,22,3.0,4.0,47,0.00,,,0.00,0.000000,,2013-01-24 12:03:00,
2013-01-24 05:12:00,23.0,6.0,-100.00,NNE,22,3.0,4.0,47,0.00,,,0.00,0.000000,,2013-01-24 12:12:00,
2013-01-24 05:22:00,23.0,6.0,-100.00,NNE,22,3.0,4.0,47,0.00,,,0.00,0.000000,,2013-01-24 12:22:00,
2013-01-24 05:33:00,23.0,6.0,-100.00,NNE,22,3.0,4.0,47,0.00,,,0.00,0.000000,,2013-01-24 12:33:00,
2013-01-24 06:03:00,20.0,6.0,-100.00,NNE,20,3.0,4.0,53,0.00,,,0.00,0.000000,,2013-01-24 13:03:00,
2013-01-24 06:13:00,20.0,6.0,-100.00,NNE,20,3.0,4.0,53,0.00,,,0.00,0.000000,,2013-01-24 13:13:00,
2013-01-24 06:23:00,20.0,6.0,-100.00,NNE,20,3.0,4.0,53,0.00,,,0.00,0.000000,,2013-01-24 13:23:00,
2013-01-24 06:33:00,20.0,6.0,-100.00,NNE,20,3.0,4.0,53,0.00,,,0.00,0.000000,,2013-01-24 13:33:00,
2013-01-24 07:03:00,20.0,5.0,-100.00,NNE,21,2.0,4.0,51,0.00,,,0.00,0.000000,,2013-01-24 14:03:00,
2013-01-24 07:12:00,20.0,5.0,-100.00,NNE,21,2.0,4.0,51,0.00,,,0.00,0.000000,,2013-01-24 14:12:00,
2013-01-24 07:23:00,20.0,5.0,-100.00,NNE,21,2.0,4.0,51,0.00,,,0.00,0.000000,,2013-01-24 14:23:00,
2013-01-24 07:33:00,20.0,5.0,-100.00,NNE,21,2.0,4.0,51,0.00,,,0.00,0.000000,,2013-01-24 14:33:00,
2013-01-24 08:03:00,22.0,5.0,-100.00,NE,46,2.0,4.0,47,0.00,,,0.00,2.000000,,2013-01-24 15:03:00,
2013-01-24 08:12:00,22.0,5.0,-100.00,NE,46,2.0,4.0,47,0.00,,,0.00,2.000000,,2013-01-24 15:12:00,
2013-01-24 08:23:00,22.0,5.0,-100.00,NE,46,2.0,4.0,47,0.00,,,0.00,2.000000,,2013-01-24 15:23:00,
2013-01-24 08:33:00,22.0,5.0,-100.00,NE,46,2.0,4.0,47,0.00,,,0.00,2.000000,,2013-01-24 15:33:00,
2013-01-24 08:53:00,28.0,5.0,-100.00,NNE,21,1.0,4.0,37,0.00,,,0.00,40.000000,,2013-01-24 15:53:00,
2013-01-24 09:03:00,28.0,5.0,-100.00,NNE,21,1.0,4.0,37,0.00,,,0.00,40.000000,,2013-01-24 16:03:00,
2013-01-24 09:12:00,28.0,5.0,-100.00,NNE,21,1.0,4.0,37,0.00,,,0.00,40.000000,,2013-01-24 16:12:00,
2013-01-24 09:23:00,28.0,5.0,-100.00,NNE,21,1.0,4.0,37,0.00,,,0.00,40.000000,,2013-01-24 16:23:00,
2013-01-24 09:33:00,28.0,5.0,-100.00,NNE,21,1.0,4.0,37,0.00,,,0.00,40.000000,,2013-01-24 16:33:00,
2013-01-24 10:02:00,43.0,8.0,-100.00,WSW,242,3.0,5.0,23,0.00,,,0.00,219.000000,,2013-01-24 17:02:00,
2013-01-24 10:12:00,43.0,8.0,-100.00,WSW,242,3.0,5.0,23,0.00,,,0.00,219.000000,,2013-01-24 17:12:00,
2013-01-24 10:21:00,43.0,8.0,-100.00,WSW,242,3.0,5.0,23,0.00,,,0.00,219.000000,,2013-01-24 17:21:00,
2013-01-24 10:32:00,43.0,8.0,-100.00,WSW,242,3.0,5.0,23,0.00,,,0.00,219.000000,,2013-01-24 17:32:00,
2013-01-24 11:02:00,48.0,10.0,-100.00,West,265,4.0,10.0,21,0.00,,,0.00,422.000000,,2013-01-24 18:02:00,
2013-01-24 11:12:00,48.0,10.0,-100.00,West,265,4.0,10.0,21,0.00,,,0.00,422.000000,,2013-01-24 18:12:00,
2013-01-24 11:22:00,48.0,10.0,-100.00,West,265,4.0,10.0,21,0.00,,,0.00,422.000000,,2013-01-24 18:22:00,
2013-01-24 11:32:00,48.0,10.0,-100.00,West,265,4.0,10.0,21,0.00,,,0.00,422.000000,,2013-01-24 18:32:00,
2013-01-24 12:02:00,49.0,11.0,-100.00,WNW,290,5.0,13.0,21,0.00,,,0.00,569.000000,,2013-01-24 19:02:00,
2013-01-24 12:12:00,49.0,11.0,-100.00,WNW,290,5.0,13.0,21,0.00,,,0.00,569.000000,,2013-01-24 19:12:00,
2013-01-24 12:22:00,49.0,11.0,-100.00,WNW,290,5.0,13.0,21,0.00,,,0.00,569.000000,,2013-01-24 19:22:00,
2013-01-24 12:33:00,49.0,11.0,-100.00,WNW,290,5.0,13.0,21,0.00,,,0.00,569.000000,,2013-01-24 19:33:00,
2013-01-24 14:02:00,47.0,10.0,-100.00,NW,310,8.0,19.0,22,-99.99,,,0.00,541.000000,,2013-01-24 21:02:00,
2013-01-24 14:12:00,47.0,10.0,-100.00,NW,310,8.0,19.0,22,-99.99,,,0.00,541.000000,,2013-01-24 21:12:00,
2013-01-24 14:22:00,47.0,10.0,-100.00,NW,310,8.0,19.0,22,-99.99,,,0.00,541.000000,,2013-01-24 21:22:00,
2013-01-24 14:33:00,47.0,10.0,-100.00,NW,310,8.0,19.0,22,-99.99,,,0.00,541.000000,,2013-01-24 21:33:00,
2013-01-24 15:03:00,41.0,14.0,-100.00,NW,317,6.0,15.0,33,0.00,,,0.00,248.000000,,2013-01-24 22:03:00,
2013-01-24 15:12:00,41.0,14.0,-100.00,NW,317,6.0,15.0,33,0.00,,,0.00,248.000000,,2013-01-24 22:12:00,
2013-01-24 15:22:00,41.0,14.0,-100.00,NW,317,6.0,15.0,33,0.00,,,0.00,248.000000,,2013-01-24 22:22:00,
2013-01-24 15:32:00,41.0,14.0,-100.00,NW,317,6.0,15.0,33,0.00,,,0.00,248.000000,,2013-01-24 22:32:00,
2013-01-24 16:02:00,38.0,18.0,-100.00,NNW,331,6.0,13.0,44,0.00,,,0.00,120.000000,,2013-01-24 23:02:00,
2013-01-24 16:12:00,38.0,18.0,-100.00,NNW,331,6.0,13.0,44,0.00,,,0.00,120.000000,,2013-01-24 23:12:00,
2013-01-24 16:22:00,38.0,18.0,-100.00,NNW,331,6.0,13.0,44,0.00,,,0.00,120.000000,,2013-01-24 23:22:00,
2013-01-24 16:32:00,38.0,18.0,-100.00,NNW,331,6.0,13.0,44,0.00,,,0.00,120.000000,,2013-01-24 23:32:00,
2013-01-24 17:02:00,34.0,21.0,-100.00,NNW,329,4.0,14.0,58,0.00,,,0.00,53.000000,,2013-01-25 00:02:00,
2013-01-24 17:12:00,34.0,21.0,-100.00,NNW,329,4.0,14.0,58,0.00,,,0.00,53.000000,,2013-01-25 00:12:00,
2013-01-24 17:22:00,34.0,21.0,-100.00,NNW,329,4.0,14.0,58,0.00,,,0.00,53.000000,,2013-01-25 00:22:00,
2013-01-24 17:32:00,34.0,21.0,-100.00,NNW,329,4.0,14.0,58,0.00,,,0.00,53.000000,,2013-01-25 00:32:00,
2013-01-24 17:53:00,32.0,20.0,-100.00,NNW,329,5.0,13.0,61,0.00,,,0.00,4.000000,,2013-01-25 00:53:00,
2013-01-24 18:02:00,32.0,20.0,-100.00,NNW,329,5.0,13.0,61,0.00,,,0.00,4.000000,,2013-01-25 01:02:00,
2013-01-24 18:12:00,32.0,20.0,-100.00,NNW,329,5.0,13.0,61,0.00,,,0.00,4.000000,,2013-01-25 01:12:00,
2013-01-24 18:22:00,32.0,20.0,-100.00,NNW,329,5.0,13.0,61,0.00,,,0.00,4.000000,,2013-01-25 01:22:00,
2013-01-24 18:32:00,32.0,20.0,-100.00,NNW,329,5.0,13.0,61,0.00,,,0.00,4.000000,,2013-01-25 01:32:00,
2013-01-24 18:52:00,31.0,19.0,-100.00,NW,324,4.0,10.0,61,0.00,,,0.00,0.000000,,2013-01-25 01:52:00,
2013-01-24 19:02:00,31.0,19.0,-100.00,NW,324,4.0,10.0,61,0.00,,,0.00,0.000000,,2013-01-25 02:02:00,
2013-01-24 19:11:00,31.0,19.0,-100.00,NW,324,4.0,10.0,61,0.00,,,0.00,0.000000,,2013-01-25 02:11:00,
2013-01-24 19:22:00,31.0,19.0,-100.00,NW,324,4.0,10.0,61,0.00,,,0.00,0.000000,,2013-01-25 02:22:00,
2013-01-24 19:32:00,31.0,19.0,-100.00,NW,324,4.0,10.0,61,0.00,,,0.00,0.000000,,2013-01-25 02:32:00,
2013-01-24 20:02:00,28.0,17.0,-100.00,North,349,3.0,14.0,63,0.00,,,0.00,0.000000,,2013-01-25 03:02:00,
2013-01-24 20:12:00,28.0,17.0,-100.00,North,349,3.0,14.0,63,0.00,,,0.00,0.000000,,2013-01-25 03:12:00,
2013-01-24 20:22:00,28.0,17.0,-100.00,North,349,3.0,14.0,63,0.00,,,0.00,0.000000,,2013-01-25 03:22:00,
2013-01-24 20:33:00,28.0,17.0,-100.00,North,349,3.0,14.0,63,0.00,,,0.00,0.000000,,2013-01-25 03:33:00,
2013-01-24 21:02:00,25.0,16.0,-100.00,NNE,20,0.0,8.0,67,0.00,,,0.00,0.000000,,2013-01-25 04:02:00,
2013-01-24 21:12:00,25.0,16.0,-100.00,NNE,20,0.0,8.0,67,0.00,,,0.00,0.000000,,2013-01-25 04:12:00,
2013-01-24 21:22:00,25.0,16.0,-100.00,NNE,20,0.0,8.0,67,0.00,,,0.00,0.000000,,2013-01-25 04:22:00,
2013-01-24 21:32:00,25.0,16.0,-100.00,NNE,20,0.0,8.0,67,0.00,,,0.00,0.000000,,2013-01-25 04:32:00,
2013-01-24 22:03:00,24.0,15.0,-100.00,North,8,0.0,4.0,69,0.00,,,0.00,0.000000,,2013-01-25 05:03:00,
2013-01-24 22:12:00,24.0,15.0,-100.00,North,8,0.0,4.0,69,0.00,,,0.00,0.000000,,2013-01-25 05:12:00,
2013-01-24 22:22:00,24.0,15.0,-100.00,North,8,0.0,4.0,69,0.00,,,0.00,0.000000,,2013-01-25 05:22:00,
2013-01-24 22:32:00,24.0,15.0,-100.00,North,8,0.0,4.0,69,0.00,,,0.00,0.000000,,2013-01-25 05:32:00,
2013-01-24 23:02:00,24.0,15.0,-100.00,NNW,341,2.0,5.0,68,0.00,,,0.00,0.000000,,2013-01-25 06:02:00,
2013-01-24 23:11:00,24.0,15.0,-100.00,NNW,341,2.0,5.0,68,0.00,,,0.00,0.000000,,2013-01-25 06:11:00,
2013-01-24 23:21:00,24.0,15.0,-100.00,NNW,341,2.0,5.0,68,0.00,,,0.00,0.000000,,2013-01-25 06:21:00,
2013-01-24 23:32:00,24.0,15.0,-100.00,NNW,341,2.0,5.0,68,0.00,,,0.00,0.000000,,2013-01-25 06:32:00,
2013-01-24 23:52:00,22.0,15.0,-100.00,East,84,0.0,3.0,73,0.00,,,0.00,0.000000,,2013-01-25 06:52:00,